EHI
16 13 10 9 10 8 6 5 5 3 2 3 3 3 4 5 4 3 3 3 3 2 1 0 0 1 1 1 0 0 0 1 0 0 0 0 0 0 0 0 0 0 0
14 12 9 9 8 7 6 5 4 3 3 3 3 2 3 3 3 3 3 3 3 2 1 0 0 1 1 0 0 0 0 1 0 0 0 0 0 0 0 0 0 0 0
10 8 6 7 7 7 7 5 5 4 3 3 3 3 2 2 2 2 2 2 2 1 1 0 0 0 0 0 0 0 0 1 0 0 0 0 0 0 0 0 0 0 0
7 5 4 4 5 6 6 5 6 5 4 3 4 4 3 2 1 1 1 1 1 0 0 0 0 0 0 0 0 0 1 1 1 0 0 0 0 0 0 0 0 0 0
4 4 3 3 2 2 3 4 5 6 5 4 4 4 3 2 0 0 0 0 0 0 0 0 0 0 0 0 0 0 1 2 2 1 0 0 0 0 0 0 0 0 0
3 3 3 2 1 0 0 2 4 6 6 6 4 3 2 1 0 0 0 0 0 0 0 0 0 0 0 0 0 0 0 1 2 1 0 0 0 0 0 0 0 0 0
2 2 3 2 1 0 1 1 3 5 7 6 5 3 1 0 0 0 0 0 0 0 0 0 0 0 0 0 0 0 0 0 1 1 0 0 0 0 0 0 0 0 0
1 1 2 3 2 2 2 2 3 4 4 4 3 2 2 1 0 0 0 0 0 0 0 0 0 0 0 0 0 0 0 0 0 0 0 0 0 0 0 0 0 0 0
0 0 2 3 3 3 3 3 2 2 1 1 1 1 1 1 0 0 0 0 0 0 0 0 0 0 0 0 0 0 0 0 0 0 0 0 0 0 0 0 0 0 0
1 1 3 4 4 3 2 1 1 0 0 0 0 0 0 0 0 0 0 0 0 0 0 0 0 0 0 0 0 0 0 0 0 0 0 0 0 0 0 0 0 0 0
2 3 4 4 3 2 1 0 0 0 0 0 0 0 0 0 0 0 0 0 0 0 0 0 0 0 0 0 0 0 0 0 0 0 0 0 0 0 0 0 0 0 0
3 3 3 2 1 1 0 0 0 0 0 0 0 0 0 0 0 0 0 0 0 0 0 0 0 0 0 0 0 0 0 0 0 0 0 0 0 0 0 0 0 0 0
3 2 1 1 0 0 0 0 0 0 0 0 0 0 0 0 0 0 0 0 0 0 0 0 0 0 0 0 0 0 0 0 0 0 0 0 0 0 0 0 0 0 0
2 1 0 0 0 0 0 0 0 0 0 0 0 0 0 0 0 0 0 0 0 0 0 0 0 0 0 0 0 0 0 0 0 0 0 0 0 0 0 0 0 0 0
1 0 0 0 0 0 0 0 0 0 0 0 0 0 0 0 0 0 0 0 0 0 0 0 0 0 0 0 0 0 0 0 0 0 0 0 0 0 0 0 0 0 0
0 0 0 0 0 0 0 0 0 0 0 0 0 0 0 0 0 0 0 0 0 0 0 0 0 0 0 0 0 0 0 0 0 0 0 0 0 0 0 0 0 0 0
0 0 0 0 0 0 0 0 0 0 0 0 0 0 0 0 0 0 0 0 0 0 0 0 0 0 0 0 0 0 0 0 0 0 0 0 0 0 0 0 0 0 0
0 0 0 0 0 0 0 0 0 0 0 0 0 0 0 0 0 0 0 0 0 0 0 0 0 0 0 0 0 0 0 0 0 0 0 0 0 0 0 0 0 0 0
0 0 0 0 0 0 0 0 0 0 0 0 0 0 0 0 0 0 0 0 0 0 0 0 0 0 0 0 0 0 0 0 0 0 0 0 0 0 0 0 0 0 0
0 0 0 0 0 0 0 0 0 0 0 0 0 0 0 0 0 0 0 0 0 0 0 0 0 0 0 0 0 0 0 0 0 0 0 0 0 0 0 0 0 0 0
0 0 0 0 0 0 0 0 0 0 0 0 0 0 0 0 0 0 0 0 0 0 0 0 0 0 0 0 0 0 0 0 0 0 0 0 0 0 0 0 0 0 0
0 0 0 0 0 0 0 0 0 0 0 0 0 0 0 0 0 0 0 0 0 0 0 0 0 0 0 0 0 0 0 0 0 0 0 0 0 0 0 0 0 0 0
0 0 0 0 0 0 0 0 0 0 0 0 0 0 0 0 0 0 0 0 0 0 0 0 0 0 0 0 0 0 0 0 0 0 0 0 0 0 0 0 0 0 0
0 0 0 0 0 0 0 0 0 0 0 0 0 0 0 0 0 0 0 0 0 0 0 0 0 0 0 0 0 0 0 0 0 0 0 0 0 0 0 0 0 0 0
0 0 0 0 0 0 0 0 0 0 0 0 0 0 0 0 0 0 0 0 0 0 0 0 0 0 0 0 0 0 0 0 0 0 0 0 0 0 0 0 0 0 0
0 0 0 0 0 0 0 0 0 0 0 0 0 0 0 0 0 0 0 0 0 0 0 0 0 0 0 0 0 0 0 0 0 0 0 0 0 0 0 0 0 0 0
Wind_Speed
3 3 3 3 3 2 3 3 3 3 3 3 4 4 4 4 4 4 4 4 5 4 3 4 4 3 3 3 3 3 4 4 5 3 2 2 2 2 2 1 2 2 2
3 3 2 2 2 2 2 2 2 2 2 3 3 3 3 4 4 4 5 4 5 5 4 4 4 3 3 3 3 4 4 4 4 4 2 1 2 2 1 1 1 1 1
3 3 2 2 2 2 2 1 1 2 1 1 2 2 2 2 3 3 4 3 3 3 3 3 3 3 3 2 3 3 3 3 3 3 2 1 1 1 0 0 1 1 1
3 2 2 1 2 2 1 2 2 2 2 2 2 1 1 2 2 2 2 2 2 1 1 1 2 2 3 2 2 2 2 2 2 2 1 1 0 1 0 0 1 1 2
3 2 1 0 1 1 1 2 2 2 2 2 2 2 2 1 1 1 2 2 2 1 1 1 1 1 1 1 1 1 2 1 1 1 1 0 0 0 0 0 0 1 1
3 2 2 2 2 2 2 2 3 3 3 3 3 3 3 2 4 4 3 2 2 2 1 1 2 2 3 4 4 4 3 2 2 1 1 0 1 1 1 0 1 0 1
4 3 3 3 2 2 3 3 3 3 3 4 3 4 4 5 6 6 6 4 4 4 3 3 2 3 4 4 6 7 7 6 3 2 2 0 1 1 0 0 0 1 0
4 4 3 3 3 3 4 4 3 3 4 4 4 4 5 5 7 7 7 6 6 5 5 4 4 4 4 5 6 7 7 7 6 4 3 3 2 2 1 1 1 1 0
4 3 3 3 4 4 4 3 3 4 5 4 5 5 5 5 7 7 7 5 6 6 6 6 5 5 7 7 7 7 7 6 8 10 9 8 8 8 4 2 2 1 1
3 3 4 4 4 5 4 4 3 4 5 5 6 6 6 5 7 7 6 5 6 5 6 6 9 8 9 8 6 6 6 4 5 6 7 7 7 8 9 4 2 1 1
4 5 5 4 5 5 5 5 5 6 6 6 7 6 7 6 7 8 7 5 5 5 5 5 6 11 11 10 8 6 5 4 5 5 5 6 6 5 6 5 4 2 2
5 6 5 5 5 5 6 6 5 6 7 6 6 6 6 6 7 8 10 8 7 7 5 5 7 11 12 11 9 9 9 7 5 5 5 5 5 5 4 5 5 4 3
7 7 6 6 6 5 6 6 5 5 5 5 5 5 4 4 6 9 10 10 10 7 6 9 10 11 10 9 11 11 8 6 5 5 5 5 4 4 4 4 5 5 5
7 7 6 7 7 6 5 5 4 4 4 5 5 4 4 4 4 4 5 6 8 7 6 9 11 12 9 9 8 7 6 6 5 4 4 3 3 4 5 4 4 4 4
7 6 6 6 7 7 7 6 5 5 3 5 4 4 4 4 3 4 5 5 5 5 6 6 6 6 6 6 6 6 5 5 5 4 4 4 4 4 4 4 4 4 4
7 6 5 5 5 6 7 8 13 10 12 11 8 6 5 6 7 9 10 10 9 8 7 6 5 5 5 4 4 4 4 4 4 4 4 4 4 4 4 4 4 3 3
7 6 5 5 5 5 5 6 6 8 13 13 11 10 10 9 10 11 11 11 10 9 7 5 4 4 4 4 3 3 3 3 3 3 4 3 3 3 3 3 4 4 3
6 7 6 5 5 5 5 5 5 6 5 5 8 10 10 10 10 9 9 9 7 6 5 4 4 3 3 3 3 3 3 3 3 3 3 3 3 3 3 3 3 4 4
6 5 5 5 5 5 5 5 5 6 6 5 4 5 7 8 9 9 7 6 5 4 4 3 3 3 2 2 2 2 3 3 3 3 3 3 3 2 3 3 3 4 3
5 8 7 5 5 5 5 5 5 5 5 4 4 3 2 4 4 4 4 4 4 3 3 3 2 2 2 2 2 2 2 2 3 3 3 2 2 2 2 3 3 3 3
5 6 8 6 5 5 5 5 5 5 5 4 3 3 4 4 4 4 3 3 3 2 2 2 2 2 2 2 2 2 2 2 2 2 2 2 2 2 2 2 3 3 3
5 5 4 5 5 5 5 5 5 5 5 5 3 3 5 4 3 3 3 2 2 2 1 1 1 1 1 1 1 2 2 2 2 2 2 2 2 2 2 2 2 3 3
5 6 6 5 5 6 5 5 4 4 4 4 4 3 3 3 3 3 2 2 2 2 2 1 1 1 1 1 1 1 2 2 2 2 3 2 2 2 2 2 3 3 3
6 6 6 6 5 5 5 5 4 4 4 4 3 3 3 3 2 2 2 2 2 2 1 1 1 1 2 2 2 2 2 3 3 2 3 3 2 2 2 2 3 3 3
6 6 6 5 5 5 4 4 4 4 4 3 3 3 3 2 2 2 1 1 1 1 1 1 1 2 3 3 3 3 4 4 3 3 2 2 2 2 3 3 3 3 3
6 6 5 5 4 4 4 4 3 3 3 3 2 2 2 2 2 1 1 1 1 0 1 1 1 2 3 3 4 4 4 4 3 3 2 1 2 2 3 2 3 3 3
Wind_Direction
173 178 183 182 188 190 202 212 211 203 195 196 199 198 200 198 194 196 207 202 206 217 219 217 232 226 221 221 217 214 214 208 231 256 240 247 237 258 270 243 240 237 250
155 151 157 160 158 173 201 212 198 191 192 193 189 187 197 196 188 196 207 205 207 216 220 217 233 226 225 222 213 218 217 209 214 246 257 251 243 252 259 262 285 250 238
125 132 133 138 152 178 193 188 165 163 159 151 153 175 189 191 186 194 198 199 206 218 217 217 233 219 229 228 216 220 220 211 201 214 248 254 260 265 219 37 22 355 10
111 117 131 173 183 188 172 149 139 137 129 122 129 144 159 166 176 185 178 180 187 205 222 226 236 221 229 226 218 213 200 186 180 192 225 265 313 334 46 58 19 26 16
103 103 129 165 143 134 125 122 115 111 119 118 110 101 99 115 118 134 145 148 141 127 74 43 45 66 72 127 174 157 157 162 164 173 194 99 341 12 336 294 77 27 28
101 89 77 83 91 110 113 108 96 90 90 93 95 94 81 74 79 91 106 97 88 83 62 47 49 53 65 80 87 92 109 147 155 150 149 165 294 285 308 262 226 306 351
89 74 65 71 83 92 98 92 93 95 95 90 88 91 87 74 80 87 91 92 78 63 57 53 52 50 67 79 78 73 64 64 87 125 105 48 320 306 220 44 64 96 276
88 78 72 73 75 83 85 82 81 87 90 90 85 85 86 71 73 85 92 87 78 66 59 58 65 58 61 81 82 69 59 50 56 66 73 57 50 40 65 141 134 126 108
86 76 69 78 82 82 86 87 91 96 91 84 81 81 82 69 66 81 96 92 81 66 56 53 62 66 63 80 86 80 66 52 58 63 64 61 53 47 45 69 66 81 26
88 81 76 78 85 83 80 82 84 93 94 91 79 72 72 66 61 76 93 94 86 74 59 52 55 65 61 67 81 85 78 57 55 53 50 44 43 41 40 42 42 61 38
97 93 87 86 90 88 80 72 81 88 87 84 79 67 60 57 59 66 76 89 94 85 71 60 54 62 62 61 66 72 77 74 65 63 55 46 41 38 35 34 33 44 57
96 94 93 91 92 89 87 79 81 90 90 85 81 69 53 51 58 68 75 79 86 87 80 73 70 70 67 63 64 63 66 68 66 61 55 43 34 27 21 26 36 43 43
96 91 89 87 85 87 93 93 87 88 94 91 87 81 65 55 58 67 74 77 80 83 82 83 77 72 70 64 58 57 58 60 64 63 55 41 26 17 21 28 32 38 44
97 91 89 88 82 75 73 76 86 91 100 100 97 93 82 67 61 67 76 79 77 81 80 75 72 68 67 62 54 49 49 53 60 59 50 38 29 31 33 27 23 15 33
95 93 88 84 86 76 67 55 62 58 82 106 105 109 109 95 65 84 95 87 90 94 91 73 64 61 59 54 50 46 44 44 47 44 46 43 35 33 28 19 22 25 32
102 97 96 95 92 92 91 74 54 65 70 74 85 97 80 90 95 88 85 85 87 94 85 76 70 66 64 58 52 47 43 41 40 43 46 42 37 32 28 24 27 30 28
108 106 105 105 104 102 102 102 91 64 60 62 68 82 93 98 94 92 89 81 74 79 79 77 73 67 61 56 50 47 41 32 33 41 41 35 33 34 35 27 22 20 15
104 106 108 107 107 104 100 97 99 102 87 60 51 70 86 90 89 89 92 84 67 60 71 76 73 67 60 54 48 44 39 35 35 33 34 30 25 26 28 22 17 10 2
104 103 103 104 102 102 101 99 97 97 97 93 83 66 72 82 77 71 75 81 86 79 75 72 67 65 58 51 44 40 42 38 30 26 24 17 12 13 14 9 4 1 359
100 108 105 108 107 105 105 105 102 102 100 98 94 91 85 83 80 68 64 79 87 86 83 77 63 55 53 50 46 40 39 35 25 23 12 4 359 359 358 352 349 348 346
104 108 107 104 105 109 109 107 107 107 106 101 88 80 99 98 95 89 83 82 89 93 89 82 68 50 44 43 39 33 30 20 11 3 357 350 347 343 337 336 337 338 340
106 103 102 105 105 105 106 107 107 108 110 107 97 83 86 88 94 92 90 85 79 75 80 85 69 42 28 21 12 7 4 357 351 344 337 333 329 330 331 335 340 342 345
108 107 101 99 102 106 106 106 108 109 109 108 108 102 98 96 98 99 96 88 77 71 64 70 68 40 24 12 1 347 331 324 317 309 310 317 324 326 325 328 332 336 340
109 111 110 107 106 108 108 107 108 111 114 116 116 113 109 105 99 96 93 87 76 62 54 56 49 31 13 2 351 339 324 311 301 288 289 295 306 314 319 325 328 330 330
107 109 111 114 114 113 110 108 108 111 114 116 118 117 114 111 106 100 95 90 83 65 53 52 33 11 1 357 355 348 336 321 312 306 289 286 301 314 322 328 329 330 329
105 107 107 109 111 113 116 117 115 115 116 119 125 128 130 132 135 134 124 116 107 56 25 34 25 12 358 352 351 349 342 335 330 319 300 293 308 321 330 326 330 330 331